Location: Unspecified
(43.4680°N, 87.1740°E)
Time: 19:46:40
(UTC+00:00)

Cosmos 1727 Rocket - Pass Details

Date: 17 April 2021
Orbit: 962 x 995 km, 82.9° (Epoch: 11 May)

Event Time Altitude Azimuth Distance (km) Brightness Sun altitude
Rises 22:11:04 0° 187° (S) 3,641 6.7 -13.1°
Reaches altitude 10° 22:13:32 10° 187° (S) 2,702 6.0 -12.7°
Maximum altitude 22:19:45 87° 277° (W) 982 4.0 -11.7°
Drops below altitude 10° 22:26:03 10° 7° (N) 2,743 6.8 -10.7°
Sets 22:28:35 0° 8° (N) 3,700 7.5 -10.3°
